| time (UTC) | temp F | wind direction | speed knots | gust knots | rain 1hr in | rain 24hr in | rain mn in | humidity % | barometer mb |
| 20260831193221 | 93 | 246 | 2.6 | 4.3 | 0.00 | 0.00 | 0.00 | 77 | 1020.1 |
| 20260831192716 | 95 | 267 | 6.1 | 8.7 | 0.00 | 0.00 | 0.00 | 77 | 1020.4 |
| 20260831192211 | 94 | 240 | 4.3 | 8.7 | 0.00 | 0.00 | 0.00 | 77 | 1020.4 |
| 20260831191707 | 96 | 245 | 1.7 | 6.1 | 0.00 | 0.00 | 0.00 | 77 | 1020.4 |
| 20260831191203 | 94 | 274 | 4.3 | 5.2 | 0.00 | 0.00 | 0.00 | 77 | 1020.5 |
| 20260831190657 | 94 | 206 | 2.6 | 4.3 | 0.00 | 0.00 | 0.00 | 77 | 1020.7 |
| 20260831190157 | 94 | 203 | 4.3 | 6.1 | 0.00 | 0.00 | 0.00 | 77 | 1020.4 |
| 20260831185652 | 95 | 185 | 2.6 | 7.0 | 0.00 | 0.00 | 0.00 | 77 | 1020.4 |
| 20260831185148 | 93 | 197 | 5.2 | 8.7 | 0.00 | 0.00 | 0.00 | 77 | 1020.7 |
| 20260831184647 | 93 | 207 | 4.3 | 7.8 | 0.00 | 0.00 | 0.00 | 77 | 1020.8 |
| 20260831184143 | 94 | 219 | 3.5 | 7.8 | 0.00 | 0.00 | 0.00 | 77 | 1020.7 |
| 20260831183643 | 93 | 197 | 1.7 | 8.7 | 0.00 | 0.00 | 0.00 | 77 | 1020.8 |
| 20260831183142 | 93 | 237 | 3.5 | 5.2 | 0.00 | 0.00 | 0.00 | 77 | 1021.0 |
| 20260831182641 | 93 | 214 | 5.2 | 7.8 | 0.00 | 0.00 | 0.00 | 77 | 1021.0 |
| 20260831182137 | 93 | 246 | 2.6 | 7.8 | 0.00 | 0.00 | 0.00 | 77 | 1020.9 |
| 20260831181632 | 93 | 257 | 4.3 | 7.8 | 0.00 | 0.00 | 0.00 | 77 | 1021.2 |
| 20260831181131 | 93 | 199 | 3.5 | 7.8 | 0.00 | 0.00 | 0.00 | 77 | 1021.3 |
| 20260831180627 | 93 | 196 | 5.2 | 9.6 | 0.00 | 0.00 | 0.00 | 77 | 1021.2 |
| 20260831180122 | 92 | 197 | 2.6 | 5.2 | 0.00 | 0.00 | 0.00 | 77 | 1021.3 |
| 20260831175616 | 93 | 194 | 2.6 | 8.7 | 0.00 | 0.00 | 0.00 | 77 | 1021.3 |
| 20260831175114 | 92 | 218 | 5.2 | 11.3 | 0.00 | 0.00 | 0.00 | 77 | 1021.2 |
| 20260831174613 | 92 | 185 | 2.6 | 9.6 | 0.00 | 0.00 | 0.00 | 77 | 1021.4 |
| 20260831174108 | 91 | 201 | 3.5 | 10.4 | 0.00 | 0.00 | 0.00 | 76 | 1021.3 |
| 20260831173606 | 92 | 194 | 2.6 | 6.1 | 0.00 | 0.00 | 0.00 | 77 | 1021.3 |
| 20260831173103 | 91 | 259 | 1.7 | 8.7 | 0.00 | 0.00 | 0.00 | 77 | 1021.4 |
| 20260831172602 | 91 | 196 | 8.7 | 11.3 | 0.00 | 0.00 | 0.00 | 76 | 1021.2 |
| 20260831172057 | 91 | 191 | 4.3 | 9.6 | 0.00 | 0.00 | 0.00 | 76 | 1021.5 |
| 20260831171553 | 91 | 215 | 5.2 | 9.6 | 0.00 | 0.00 | 0.00 | 76 | 1021.5 |
| 20260831171050 | 91 | 275 | 1.7 | 8.7 | 0.00 | 0.00 | 0.00 | 76 | 1021.4 |
| 20260831170546 | 91 | 249 | 7.8 | 9.6 | 0.00 | 0.00 | 0.00 | 76 | 1021.5 |
| 20260831170044 | 90 | 200 | 7.8 | 11.3 | 0.00 | 0.00 | 0.00 | 76 | 1021.8 |
| 20260831165543 | 90 | 215 | 2.6 | 13.0 | 0.00 | 0.00 | 0.00 | 76 | 1021.7 |
| 20260831165040 | 91 | 334 | 1.7 | 8.7 | 0.00 | 0.00 | 0.00 | 76 | 1021.7 |
| 20260831164536 | 90 | 223 | 7.8 | 9.6 | 0.00 | 0.00 | 0.00 | 76 | 1022.2 |
| 20260831164031 | 89 | 210 | 1.7 | 10.4 | 0.00 | 0.00 | 0.00 | 76 | 1022.2 |
| 20260831163526 | 89 | 210 | 1.7 | 10.4 | 0.00 | 0.00 | 0.00 | 76 | 1022.0 |
| 20260831163021 | 89 | 210 | 1.7 | 10.4 | 0.00 | 0.00 | 0.00 | 76 | 1021.9 |
| 20260831162520 | 90 | 222 | 2.6 | 4.3 | 0.00 | 0.00 | 0.00 | 76 | 1021.8 |
| 20260831162018 | 89 | 223 | 3.5 | 7.0 | 0.00 | 0.00 | 0.00 | 76 | 1022.0 |
| 20260831161515 | 89 | 223 | 3.5 | 7.0 | 0.00 | 0.00 | 0.00 | 76 | 1021.9 |
| 20260831161011 | 86 | 248 | 4.3 | 7.0 | 0.00 | 0.00 | 0.00 | 76 | 1022.4 |
| 20260831160510 | 86 | 248 | 4.3 | 7.0 | 0.00 | 0.00 | 0.00 | 76 | 1022.0 |
| 20260831160006 | 86 | 248 | 4.3 | 7.0 | 0.00 | 0.00 | 0.00 | 76 | 1022.0 |
| 20260831155500 | 86 | 248 | 4.3 | 7.0 | 0.00 | 0.00 | 0.00 | 76 | 1021.9 |
| 20260831154955 | 86 | 248 | 4.3 | 7.0 | 0.00 | 0.00 | 0.00 | 76 | 1022.0 |
| 20260831154452 | 86 | 248 | 4.3 | 7.0 | 0.00 | 0.00 | 0.00 | 76 | 1022.0 |
| 20260831153950 | 86 | 248 | 4.3 | 7.0 | 0.00 | 0.00 | 0.00 | 76 | 1021.8 |
| 20260831153446 | 86 | 248 | 4.3 | 10.4 | 0.00 | 0.00 | 0.00 | 76 | 1022.0 |
| 20260831152943 | 87 | 213 | 3.5 | 9.6 | 0.00 | 0.00 | 0.00 | 76 | 1022.0 |
| 20260831152437 | 86 | 197 | 6.1 | 13.0 | 0.00 | 0.00 | 0.00 | 76 | 1022.2 |
| 20260831151933 | 87 | 190 | 1.7 | 7.8 | 0.00 | 0.00 | 0.00 | 76 | 1022.2 |
| 20260831151431 | 86 | 244 | 8.7 | 11.3 | 0.00 | 0.00 | 0.00 | 76 | 1022.0 |
| 20260831150927 | 86 | 249 | 2.6 | 10.4 | 0.00 | 0.00 | 0.00 | 76 | 1022.0 |
| 20260831150422 | 85 | 228 | 3.5 | 9.6 | 0.00 | 0.00 | 0.00 | 76 | 1021.9 |
| 20260831145922 | 85 | 150 | 1.7 | 12.2 | 0.00 | 0.00 | 0.00 | 76 | 1021.8 |
| 20260831145418 | 84 | 241 | 6.1 | 7.8 | 0.00 | 0.00 | 0.00 | 76 | 1022.0 |
| 20260831144914 | 83 | 226 | 6.1 | 9.6 | 0.00 | 0.00 | 0.00 | 75 | 1021.8 |
| 20260831144409 | 83 | 246 | 8.7 | 9.6 | 0.00 | 0.00 | 0.00 | 75 | 1021.8 |
| 20260831143904 | 83 | 216 | 4.3 | 7.8 | 0.00 | 0.00 | 0.00 | 75 | 1022.0 |
| 20260831143359 | 82 | 197 | 4.3 | 9.6 | 0.00 | 0.00 | 0.00 | 75 | 1021.9 |
| 20260831142854 | 82 | 208 | 1.7 | 5.2 | 0.00 | 0.00 | 0.00 | 75 | 1021.5 |
| 20260831142349 | 81 | 197 | 3.5 | 7.0 | 0.00 | 0.00 | 0.00 | 75 | 1021.7 |
| 20260831141844 | 81 | 249 | 3.5 | 7.0 | 0.00 | 0.00 | 0.00 | 75 | 1022.0 |
| 20260831141338 | 81 | 202 | 5.2 | 5.2 | 0.00 | 0.00 | 0.00 | 75 | 1021.8 |
| 20260831140834 | 80 | 197 | 2.6 | 4.3 | 0.00 | 0.00 | 0.00 | 75 | 1021.8 |
| 20260831140328 | 79 | 218 | 2.6 | 3.5 | 0.00 | 0.00 | 0.00 | 75 | 1021.8 |
| 20260831135826 | 79 | 202 | 2.6 | 3.5 | 0.00 | 0.00 | 0.00 | 75 | 1021.9 |
| 20260831135321 | 78 | 200 | 2.6 | 4.3 | 0.00 | 0.00 | 0.00 | 75 | 1021.8 |
| 20260831134817 | 78 | 148 | 0.0 | 3.5 | 0.00 | 0.00 | 0.00 | 75 | 1021.7 |
| 20260831134314 | 77 | 208 | 4.3 | 4.3 | 0.00 | 0.00 | 0.00 | 75 | 1021.9 |
| 20260831133812 | 77 | 203 | 2.6 | 3.5 | 0.00 | 0.00 | 0.00 | 75 | 1021.9 |
| 20260831133307 | 76 | 182 | 2.6 | 2.6 | 0.00 | 0.00 | 0.00 | 75 | 1021.9 |
| 20260831132802 | 76 | 217 | 1.7 | 3.5 | 0.00 | 0.00 | 0.00 | 74 | 1021.8 |
| 20260831132257 | 76 | 199 | 0.0 | 3.5 | 0.00 | 0.00 | 0.00 | 74 | 1022.0 |
| 20260831131756 | 76 | 186 | 0.0 | 2.6 | 0.00 | 0.00 | 0.00 | 75 | 1021.7 |
| 20260831131253 | 76 | 163 | 0.0 | 1.7 | 0.00 | 0.00 | 0.00 | 74 | 1021.6 |
| 20260831130748 | 75 | 208 | 2.6 | 2.6 | 0.00 | 0.00 | 0.00 | 74 | 1021.6 |
| 20260831130243 | 75 | 200 | 0.9 | 1.7 | 0.00 | 0.00 | 0.00 | 74 | 1021.6 |
| 20260831125742 | 75 | 208 | 0.0 | 2.6 | 0.00 | 0.00 | 0.00 | 74 | 1021.5 |
| 20260831125238 | 74 | 173 | 0.0 | 1.7 | 0.00 | 0.00 | 0.00 | 74 | 1021.5 |
| 20260831124732 | 73 | 157 | 0.0 | 1.7 | 0.00 | 0.00 | 0.00 | 74 | 1021.2 |
| 20260831124229 | 73 | 160 | 0.0 | 2.6 | 0.00 | 0.00 | 0.00 | 74 | 1021.4 |
| 20260831123728 | 71 | 192 | 0.9 | 1.7 | 0.00 | 0.00 | 0.00 | 74 | 1021.2 |
| 20260831123227 | 69 | 206 | 0.0 | 2.6 | 0.00 | 0.00 | 0.00 | 74 | 1021.0 |
| 20260831122721 | 69 | 209 | 0.0 | 2.6 | 0.00 | 0.00 | 0.00 | 74 | 1021.0 |
| 20260831122218 | 69 | 220 | 1.7 | 1.7 | 0.00 | 0.00 | 0.00 | 74 | 1020.7 |
| 20260831121717 | 69 | 221 | 1.7 | 1.7 | 0.00 | 0.00 | 0.00 | 74 | 1021.0 |
| 20260831121214 | 69 | 200 | 0.9 | 0.9 | 0.00 | 0.00 | 0.00 | 74 | 1020.7 |
| 20260831120709 | 0 | 0.0 | 0.0 | 0.00 | 0.00 | 0.00 | 1020.7 | ||
| 20260831120203 | 0 | 0.0 | 0.0 | 0.00 | 0.00 | 0.00 | 1020.6 | ||
| 20260831115659 | 0 | 0.0 | 0.0 | 0.00 | 0.00 | 0.00 | 1020.7 | ||
| 20260831115155 | 0 | 0.0 | 0.0 | 0.00 | 0.00 | 0.00 | 1020.4 | ||
| 20260831114654 | 0 | 0.0 | 0.0 | 0.00 | 0.00 | 0.00 | 1020.5 | ||
| 20260831114148 | 0 | 0.0 | 0.0 | 0.00 | 0.00 | 0.00 | 1020.6 | ||
| 20260831113648 | 0 | 0.0 | 0.0 | 0.00 | 0.00 | 0.00 | 1020.5 | ||
| 20260831113143 | 0 | 0.0 | 0.0 | 0.00 | 0.00 | 0.00 | 1020.1 | ||
| 20260831112642 | 0 | 0.0 | 0.0 | 0.00 | 0.00 | 0.00 | 1020.3 | ||
| 20260831112138 | 0 | 0.0 | 0.0 | 0.00 | 0.00 | 0.00 | 1020.2 | ||
| 20260831111634 | 0 | 0.0 | 0.0 | 0.00 | 0.00 | 0.00 | 1020.6 | ||
| 20260831111129 | 0 | 0.0 | 0.0 | 0.00 | 0.00 | 0.00 | 1020.2 | ||
| 20260831110625 | 0 | 0.0 | 0.0 | 0.00 | 0.00 | 0.00 | 1020.2 | ||
| 20260831110120 | 0 | 0.0 | 0.0 | 0.00 | 0.00 | 0.00 | 1020.2 | ||
| 20260831105619 | 0 | 0.0 | 0.0 | 0.00 | 0.00 | 0.00 | 1020.2 | ||
| 20260831105114 | 0 | 0.0 | 0.0 | 0.00 | 0.00 | 0.00 | 1020.3 | ||
| 20260831104610 | 0 | 0.0 | 0.0 | 0.00 | 0.00 | 0.00 | 1020.2 | ||
| 20260831104106 | 0 | 0.0 | 0.0 | 0.00 | 0.00 | 0.00 | 1020.4 | ||
| 20260831103601 | 0 | 0.0 | 0.0 | 0.00 | 0.00 | 0.00 | 1020.2 | ||
| 20260831103056 | 0 | 0.0 | 0.0 | 0.00 | 0.00 | 0.00 | 1020.3 | ||
| 20260831102550 | 0 | 0.0 | 0.0 | 0.00 | 0.00 | 0.00 | 1020.3 | ||
| 20260831102046 | 0 | 0.0 | 0.0 | 0.00 | 0.00 | 0.00 | 1020.1 | ||
| 20260831101540 | 0 | 0.0 | 0.0 | 0.00 | 0.00 | 0.00 | 1020.2 | ||
| 20260831101037 | 0 | 0.0 | 0.0 | 0.00 | 0.00 | 0.00 | 1020.3 | ||
| 20260831100532 | 0 | 0.0 | 0.0 | 0.00 | 0.00 | 0.00 | 1020.3 | ||
| 20260831100028 | 0 | 0.0 | 0.0 | 0.00 | 0.00 | 0.00 | 1020.5 | ||
| 20260831095526 | 0 | 0.0 | 0.0 | 0.00 | 0.00 | 0.00 | 1020.2 | ||
| 20260831095021 | 0 | 0.0 | 0.0 | 0.00 | 0.00 | 0.00 | 1020.1 | ||
| 20260831094518 | 0 | 0.0 | 0.0 | 0.00 | 0.00 | 0.00 | 1020.2 | ||
| 20260831094013 | 0 | 0.0 | 0.0 | 0.00 | 0.00 | 0.00 | 1020.2 | ||
| 20260831093513 | 0 | 0.0 | 0.0 | 0.00 | 0.00 | 0.00 | 1020.1 | ||
| 20260831093010 | 0 | 0.0 | 0.0 | 0.00 | 0.00 | 0.00 | 1020.2 | ||
| 20260831092505 | 0 | 0.0 | 0.0 | 0.00 | 0.00 | 0.00 | 1020.1 | ||
| 20260831092001 | 0 | 0.0 | 0.0 | 0.00 | 0.00 | 0.00 | 1019.9 | ||
| 20260831091455 | 0 | 0.0 | 0.0 | 0.00 | 0.00 | 0.00 | 1020.1 | ||
| 20260831090950 | 0 | 0.0 | 0.0 | 0.00 | 0.00 | 0.00 | 1019.9 | ||
| 20260831090447 | 0 | 0.0 | 0.0 | 0.00 | 0.00 | 0.00 | 1020.0 | ||
| 20260831085942 | 0 | 0.0 | 0.0 | 0.00 | 0.00 | 0.00 | 1019.9 | ||
| 20260831085438 | 0 | 0.0 | 0.0 | 0.00 | 0.00 | 0.00 | 1020.2 | ||
| 20260831084937 | 0 | 0.0 | 0.0 | 0.00 | 0.00 | 0.00 | 1019.8 | ||
| 20260831084433 | 0 | 0.0 | 0.0 | 0.00 | 0.00 | 0.00 | 1019.6 | ||
| 20260831083930 | 0 | 0.0 | 0.0 | 0.00 | 0.00 | 0.00 | 1019.7 | ||
| 20260831083425 | 0 | 0.0 | 0.0 | 0.00 | 0.00 | 0.00 | 1019.6 | ||
| 20260831082924 | 0 | 0.0 | 0.0 | 0.00 | 0.00 | 0.00 | 1019.8 | ||
| 20260831082423 | 0 | 0.0 | 0.0 | 0.00 | 0.00 | 0.00 | 1019.8 | ||
| 20260831081919 | 0 | 0.0 | 0.0 | 0.00 | 0.00 | 0.00 | 1019.7 | ||
| 20260831081415 | 0 | 0.0 | 0.0 | 0.00 | 0.00 | 0.00 | 1019.8 | ||
| 20260831080910 | 0 | 0.0 | 0.0 | 0.00 | 0.00 | 0.00 | 1019.7 | ||
| 20260831080405 | 0 | 0.0 | 0.0 | 0.00 | 0.00 | 0.00 | 1019.4 | ||
| 20260831075901 | 0 | 0.0 | 0.0 | 0.00 | 0.00 | 0.00 | 1019.6 | ||
| 20260831075356 | 0 | 0.0 | 0.0 | 0.00 | 0.00 | 0.00 | 1019.7 | ||
| 20260831074851 | 0 | 0.0 | 0.0 | 0.00 | 0.00 | 0.00 | 1019.4 | ||
| 20260831074350 | 0 | 0.0 | 0.0 | 0.00 | 0.00 | 0.00 | 1019.6 | ||
| 20260831073846 | 0 | 0.0 | 0.0 | 0.00 | 0.00 | 0.00 | 1019.6 | ||
| 20260831073344 | 0 | 0.0 | 0.0 | 0.00 | 0.00 | 0.00 | 1019.8 | ||
| 20260831072840 | 0 | 0.0 | 0.0 | 0.00 | 0.00 | 0.00 | 1019.7 | ||
| 20260831072335 | 0 | 0.0 | 0.0 | 0.00 | 0.00 | 0.00 | 1019.7 | ||
| 20260831071832 | 0 | 0.0 | 0.0 | 0.00 | 0.00 | 0.00 | 1019.8 | ||
| 20260831071330 | 0 | 0.0 | 0.0 | 0.00 | 0.00 | 0.00 | 1019.7 | ||
| 20260831070826 | 0 | 0.0 | 0.0 | 0.00 | 0.00 | 0.00 | 1020.0 | ||
| 20260831070324 | 0 | 0.0 | 0.0 | 0.00 | 0.00 | 0.00 | 1019.7 | ||
| 20260831065824 | 0 | 0.0 | 0.0 | 0.00 | 0.00 | 0.00 | 1019.9 | ||
| 20260831065322 | 0 | 0.0 | 0.0 | 0.00 | 0.00 | 0.00 | 1020.0 | ||
| 20260831064817 | 0 | 0.0 | 0.0 | 0.00 | 0.00 | 0.00 | 1019.7 | ||
| 20260831064312 | 0 | 0.0 | 0.0 | 0.00 | 0.00 | 0.00 | 1019.8 | ||
| 20260831063808 | 0 | 0.0 | 0.0 | 0.00 | 0.00 | 0.00 | 1020.0 | ||
| 20260831063258 | 0 | 0.0 | 0.0 | 0.00 | 0.00 | 0.00 | 1019.8 | ||
| 20260831062757 | 0 | 0.0 | 0.0 | 0.00 | 0.00 | 0.00 | 1020.1 | ||
| 20260831062253 | 0 | 0.0 | 0.0 | 0.00 | 0.00 | 0.00 | 1019.9 | ||
| 20260831061751 | 0 | 0.0 | 0.0 | 0.00 | 0.00 | 0.00 | 1020.1 | ||
| 20260831061246 | 0 | 0.0 | 0.0 | 0.00 | 0.00 | 0.00 | 1020.0 | ||
| 20260831060742 | 0 | 0.0 | 0.0 | 0.00 | 0.00 | 0.00 | 1020.1 | ||
| 20260831060242 | 0 | 0.0 | 0.0 | 0.00 | 0.00 | 0.00 | 1019.9 | ||
| 20260831055741 | 0 | 0.0 | 0.0 | 0.00 | 0.00 | 0.00 | 1020.1 | ||
| 20260831055242 | 0 | 0.0 | 0.0 | 0.00 | 0.00 | 0.00 | 1019.9 | ||
| 20260831054737 | 0 | 0.0 | 0.0 | 0.00 | 0.00 | 0.00 | 1020.0 | ||
| 20260831054232 | 0 | 0.0 | 0.0 | 0.00 | 0.00 | 0.00 | 1020.0 | ||
| 20260831053731 | 0 | 0.0 | 0.0 | 0.00 | 0.00 | 0.00 | 1019.9 | ||
| 20260831053229 | 0 | 0.0 | 0.0 | 0.00 | 0.00 | 0.00 | 1019.8 | ||
| 20260831052724 | 0 | 0.0 | 0.0 | 0.00 | 0.00 | 0.00 | 1019.8 | ||
| 20260831052223 | 0 | 0.0 | 0.0 | 0.00 | 0.00 | 0.00 | 1019.7 | ||
| 20260831051721 | 0 | 0.0 | 0.0 | 0.00 | 0.00 | 0.00 | 1019.8 | ||
| 20260831051220 | 0 | 0.0 | 0.0 | 0.00 | 0.00 | 0.00 | 1019.7 | ||
| 20260831050715 | 0 | 0.0 | 0.0 | 0.00 | 0.00 | 0.00 | 1019.7 | ||
| 20260831050214 | 0 | 0.0 | 0.0 | 0.00 | 0.00 | 0.00 | 1019.6 | ||
| 20260831045709 | 0 | 0.0 | 0.0 | 0.00 | 0.00 | 0.00 | 1019.9 | ||
| 20260831045203 | 0 | 0.0 | 0.0 | 0.00 | 0.00 | 0.00 | 1019.8 | ||
| 20260831044658 | 0 | 0.0 | 0.0 | 0.00 | 0.00 | 0.00 | 1019.7 | ||
| 20260831044153 | 0 | 0.0 | 0.0 | 0.00 | 0.00 | 0.00 | 1019.5 | ||
| 20260831043649 | 0 | 0.0 | 0.0 | 0.00 | 0.00 | 0.00 | 1019.5 | ||
| 20260831043144 | 0 | 0.0 | 0.0 | 0.00 | 0.00 | 0.00 | 1019.5 | ||
| 20260831042643 | 0 | 0.0 | 0.0 | 0.00 | 0.00 | 0.00 | 1019.5 | ||
| 20260831042138 | 0 | 0.0 | 0.0 | 0.00 | 0.00 | 0.00 | 1019.4 | ||
| 20260831041633 | 80 | 192 | 3.5 | 6.1 | 0.00 | 0.00 | 0.00 | 75 | 1019.7 |
| 20260831041132 | 80 | 192 | 3.5 | 6.1 | 0.00 | 0.00 | 0.00 | 75 | 1019.6 |
| 20260831040628 | 80 | 192 | 3.5 | 6.1 | 0.00 | 0.00 | 0.00 | 75 | 1019.6 |
| 20260831040121 | 80 | 192 | 3.5 | 6.1 | 0.00 | 0.00 | 0.00 | 75 | 1019.5 |
| 20260831035619 | 80 | 192 | 3.5 | 6.1 | 0.00 | 0.00 | 0.00 | 75 | 1019.5 |
| 20260831035114 | 80 | 192 | 3.5 | 6.1 | 0.00 | 0.00 | 0.00 | 75 | 1019.6 |
| 20260831034613 | 80 | 192 | 3.5 | 6.1 | 0.00 | 0.00 | 0.00 | 75 | 1019.5 |
| 20260831034109 | 80 | 192 | 3.5 | 6.1 | 0.00 | 0.00 | 0.00 | 75 | 1019.6 |
| 20260831033604 | 80 | 192 | 3.5 | 6.1 | 0.00 | 0.00 | 0.00 | 75 | 1019.7 |
| 20260831033059 | 80 | 192 | 3.5 | 6.1 | 0.00 | 0.00 | 0.00 | 75 | 1019.7 |
| 20260831032559 | 80 | 192 | 3.5 | 6.1 | 0.00 | 0.00 | 0.00 | 75 | 1019.3 |
| 20260831032054 | 81 | 157 | 4.3 | 4.3 | 0.00 | 0.00 | 0.00 | 75 | 1019.5 |
| 20260831031554 | 81 | 157 | 4.3 | 4.3 | 0.00 | 0.00 | 0.00 | 75 | 1019.5 |
| 20260831031053 | 81 | 157 | 4.3 | 4.3 | 0.00 | 0.00 | 0.00 | 75 | 1019.5 |
| 20260831030553 | 81 | 157 | 4.3 | 4.3 | 0.00 | 0.00 | 0.00 | 75 | 1019.4 |
| 20260831030052 | 81 | 157 | 4.3 | 4.3 | 0.00 | 0.00 | 0.00 | 75 | 1019.4 |
| 20260831025550 | 81 | 157 | 4.3 | 4.3 | 0.00 | 0.00 | 0.00 | 75 | 1019.5 |
| 20260831025046 | 81 | 157 | 4.3 | 4.3 | 0.00 | 0.00 | 0.00 | 75 | 1019.4 |
| 20260831024542 | 0 | 0.0 | 0.0 | 0.00 | 0.00 | 0.00 | 1019.6 | ||
| 20260831024040 | 0 | 0.0 | 0.0 | 0.00 | 0.00 | 0.00 | 1019.5 | ||
| 20260831023539 | 0 | 0.0 | 0.0 | 0.00 | 0.00 | 0.00 | 1019.5 | ||
| 20260831023033 | 0 | 0.0 | 0.0 | 0.00 | 0.00 | 0.00 | 1019.6 | ||
| 20260831022533 | 0 | 0.0 | 0.0 | 0.00 | 0.00 | 0.00 | 1019.4 | ||
| 20260831022028 | 0 | 0.0 | 0.0 | 0.00 | 0.00 | 0.00 | 1019.2 | ||
| 20260831021527 | 0 | 0.0 | 0.0 | 0.00 | 0.00 | 0.00 | 1019.4 | ||
| 20260831021023 | 85 | 200 | 4.3 | 4.3 | 0.00 | 0.00 | 0.00 | 76 | 1019.3 |
| 20260831020518 | 85 | 200 | 4.3 | 4.3 | 0.00 | 0.00 | 0.00 | 76 | 1019.4 |
| 20260831020013 | 85 | 200 | 4.3 | 4.3 | 0.00 | 0.00 | 0.00 | 76 | 1019.3 |
| 20260831015509 | 85 | 200 | 4.3 | 4.3 | 0.00 | 0.00 | 0.00 | 76 | 1018.8 |
| 20260831015004 | 85 | 200 | 4.3 | 4.3 | 0.00 | 0.00 | 0.00 | 76 | 1018.9 |
| 20260831014458 | 85 | 200 | 4.3 | 4.3 | 0.00 | 0.00 | 0.00 | 76 | 1019.1 |
| 20260831013954 | 85 | 200 | 4.3 | 4.3 | 0.00 | 0.00 | 0.00 | 76 | 1018.9 |
| 20260831013450 | 85 | 200 | 4.3 | 4.3 | 0.00 | 0.00 | 0.00 | 76 | 1018.6 |
| 20260831012949 | 85 | 200 | 4.3 | 4.3 | 0.00 | 0.00 | 0.00 | 76 | 1018.7 |
| 20260831012444 | 85 | 200 | 4.3 | 4.3 | 0.00 | 0.00 | 0.00 | 76 | 1018.4 |
| 20260831011938 | 85 | 200 | 4.3 | 4.3 | 0.00 | 0.00 | 0.00 | 76 | 1018.6 |
| 20260831011433 | 85 | 200 | 4.3 | 4.3 | 0.00 | 0.00 | 0.00 | 76 | 1018.3 |
| 20260831010930 | 86 | 177 | 2.6 | 2.6 | 0.00 | 0.00 | 0.00 | 76 | 1018.2 |
| 20260831010429 | 86 | 177 | 2.6 | 2.6 | 0.00 | 0.00 | 0.00 | 76 | 1018.3 |
| 20260831005924 | 0 | 0.0 | 0.0 | 0.00 | 0.00 | 0.00 | 1018.4 | ||
| 20260831005415 | 0 | 0.0 | 0.0 | 0.00 | 0.00 | 0.00 | 1018.1 | ||
| 20260831004909 | 0 | 0.0 | 0.0 | 0.00 | 0.00 | 0.00 | 1018.2 | ||
| 20260831004406 | 0 | 0.0 | 0.0 | 0.00 | 0.00 | 0.00 | 1018.1 | ||
| 20260831003901 | 0 | 0.0 | 0.0 | 0.00 | 0.00 | 0.00 | 1018.1 | ||
| 20260831003357 | 0 | 0.0 | 0.0 | 0.00 | 0.00 | 0.00 | 1017.9 | ||
| 20260831002856 | 0 | 0.0 | 0.0 | 0.00 | 0.00 | 0.00 | 1017.8 | ||
| 20260831002355 | 0 | 0.0 | 0.0 | 0.00 | 0.00 | 0.00 | 1018.0 | ||
| 20260831001851 | 0 | 0.0 | 0.0 | 0.00 | 0.00 | 0.00 | 1018.0 | ||
| 20260831001351 | 0 | 0.0 | 0.0 | 0.00 | 0.00 | 0.00 | 1018.0 | ||
| 20260831000849 | 0 | 0.0 | 0.0 | 0.00 | 0.00 | 0.00 | 1017.7 | ||
| 20260831000344 | 0 | 0.0 | 0.0 | 0.00 | 0.00 | 0.00 | 1017.9 | ||
| 20260830235842 | 0 | 0.0 | 0.0 | 0.00 | 0.00 | 0.00 | 1017.9 | ||
| 20260830235337 | 0 | 0.0 | 0.0 | 0.00 | 0.00 | 0.00 | 1017.9 | ||
| 20260830234833 | 0 | 0.0 | 0.0 | 0.00 | 0.00 | 0.00 | 1018.0 | ||
| 20260830234328 | 0 | 0.0 | 0.0 | 0.00 | 0.00 | 0.00 | 1018.0 | ||
| 20260830233824 | 0 | 0.0 | 0.0 | 0.00 | 0.00 | 0.00 | 1018.1 | ||
| 20260830233319 | 0 | 0.0 | 0.0 | 0.00 | 0.00 | 0.00 | 1017.9 | ||
| 20260830232815 | 0 | 0.0 | 0.0 | 0.00 | 0.00 | 0.00 | 1018.1 | ||
| 20260830232310 | 0 | 0.0 | 0.0 | 0.00 | 0.00 | 0.00 | 1018.2 | ||
| 20260830231807 | 0 | 0.0 | 0.0 | 0.00 | 0.00 | 0.00 | 1018.3 | ||
| 20260830231306 | 94 | 195 | 3.5 | 6.1 | 0.00 | 0.00 | 0.00 | 77 | 1018.1 |
| 20260830230801 | 94 | 195 | 3.5 | 6.1 | 0.00 | 0.00 | 0.00 | 77 | 1018.0 |
| 20260830230257 | 94 | 195 | 3.5 | 6.1 | 0.00 | 0.00 | 0.00 | 77 | 1018.0 |
| 20260830225756 | 94 | 195 | 3.5 | 6.1 | 0.00 | 0.00 | 0.00 | 77 | 1017.9 |
| 20260830225251 | 94 | 195 | 3.5 | 6.1 | 0.00 | 0.00 | 0.00 | 77 | 1018.0 |
| 20260830224750 | 94 | 195 | 3.5 | 6.1 | 0.00 | 0.00 | 0.00 | 77 | 1018.1 |
| 20260830224245 | 94 | 195 | 3.5 | 6.1 | 0.00 | 0.00 | 0.00 | 77 | 1017.9 |
| 20260830223742 | 94 | 195 | 3.5 | 6.1 | 0.00 | 0.00 | 0.00 | 77 | 1018.1 |
| 20260830223238 | 94 | 195 | 3.5 | 6.1 | 0.00 | 0.00 | 0.00 | 77 | 1017.9 |
| 20260830222732 | 94 | 195 | 3.5 | 6.1 | 0.00 | 0.00 | 0.00 | 77 | 1018.0 |
| 20260830222227 | 94 | 195 | 3.5 | 6.1 | 0.00 | 0.00 | 0.00 | 77 | 1018.0 |
| 20260830221717 | 94 | 195 | 3.5 | 6.1 | 0.00 | 0.00 | 0.00 | 77 | 1018.0 |
| 20260830221214 | 95 | 168 | 3.5 | 4.3 | 0.00 | 0.00 | 0.00 | 77 | 1018.1 |
| 20260830220709 | 95 | 168 | 3.5 | 4.3 | 0.00 | 0.00 | 0.00 | 77 | 1018.0 |
| 20260830220208 | 95 | 143 | 4.3 | 7.8 | 0.00 | 0.00 | 0.00 | 77 | 1018.2 |
| 20260830215707 | 95 | 143 | 4.3 | 7.8 | 0.00 | 0.00 | 0.00 | 77 | 1018.1 |
| 20260830215201 | 95 | 143 | 4.3 | 7.8 | 0.00 | 0.00 | 0.00 | 77 | 1018.1 |
| 20260830214657 | 95 | 143 | 4.3 | 7.8 | 0.00 | 0.00 | 0.00 | 77 | 1018.2 |
| 20260830214151 | 95 | 143 | 4.3 | 7.8 | 0.00 | 0.00 | 0.00 | 77 | 1018.2 |
| 20260830213650 | 95 | 143 | 4.3 | 7.8 | 0.00 | 0.00 | 0.00 | 77 | 1018.1 |
| 20260830213146 | 95 | 143 | 4.3 | 7.8 | 0.00 | 0.00 | 0.00 | 77 | 1018.3 |
| 20260830212642 | 95 | 143 | 4.3 | 7.8 | 0.00 | 0.00 | 0.00 | 77 | 1018.4 |
| 20260830212136 | 95 | 143 | 4.3 | 7.8 | 0.00 | 0.00 | 0.00 | 77 | 1018.4 |
| 20260830211631 | 95 | 143 | 4.3 | 7.8 | 0.00 | 0.00 | 0.00 | 77 | 1018.3 |
| 20260830211130 | 94 | 110 | 5.2 | 5.2 | 0.00 | 0.00 | 0.00 | 77 | 1018.5 |
| 20260830210626 | 94 | 110 | 5.2 | 5.2 | 0.00 | 0.00 | 0.00 | 77 | 1018.4 |
| 20260830210125 | 94 | 110 | 5.2 | 5.2 | 0.00 | 0.00 | 0.00 | 77 | 1018.5 |
| 20260830205622 | 94 | 120 | 1.7 | 5.2 | 0.00 | 0.00 | 0.00 | 77 | 1018.7 |
| 20260830205118 | 95 | 196 | 3.5 | 7.0 | 0.00 | 0.00 | 0.00 | 77 | 1018.6 |
| 20260830204618 | 94 | 152 | 3.5 | 7.0 | 0.00 | 0.00 | 0.00 | 77 | 1018.6 |
| 20260830204117 | 95 | 192 | 0.0 | 3.5 | 0.00 | 0.00 | 0.00 | 77 | 1018.7 |
| 20260830203614 | 95 | 192 | 0.0 | 3.5 | 0.00 | 0.00 | 0.00 | 77 | 1018.8 |
| 20260830203113 | 94 | 125 | 3.5 | 3.5 | 0.00 | 0.00 | 0.00 | 77 | 1018.7 |
| 20260830202613 | 94 | 125 | 3.5 | 3.5 | 0.00 | 0.00 | 0.00 | 77 | 1018.4 |
| 20260830202109 | 94 | 125 | 3.5 | 3.5 | 0.00 | 0.00 | 0.00 | 77 | 1018.7 |
| 20260830201608 | 94 | 125 | 3.5 | 3.5 | 0.00 | 0.00 | 0.00 | 77 | 1018.6 |
| 20260830201103 | 94 | 125 | 3.5 | 3.5 | 0.00 | 0.00 | 0.00 | 77 | 1019.1 |
| 20260830200558 | 94 | 125 | 3.5 | 3.5 | 0.00 | 0.00 | 0.00 | 77 | 1018.9 |
| 20260830200057 | 94 | 125 | 3.5 | 3.5 | 0.00 | 0.00 | 0.00 | 77 | 1018.8 |
| 20260830195553 | 93 | 119 | 3.5 | 3.5 | 0.00 | 0.00 | 0.00 | 77 | 1019.1 |
| 20260830195051 | 92 | 188 | 5.2 | 7.0 | 0.00 | 0.00 | 0.00 | 77 | 1019.1 |
| 20260830194551 | 92 | 188 | 5.2 | 7.0 | 0.00 | 0.00 | 0.00 | 77 | 1019.1 |
| 20260830194045 | 92 | 188 | 5.2 | 7.0 | 0.00 | 0.00 | 0.00 | 77 | 1019.3 |
| 20260830193544 | 92 | 188 | 5.2 | 7.0 | 0.00 | 0.00 | 0.00 | 77 | 1019.4 |